GFSSW_prec_cthk_159.txt.gz
RH
12 12 12 11 11 11 11 10 10 10 9 9 8 7 7 8 10 14 20 23 23 27 32 35 38 37 36 34 32 31 30 34 37 37 36 33 33 40 42 40 43 46 49 53 56
12 11 11 11 11 10 10 10 10 10 10 9 8 7 7 7 6 10 13 19 20 24 30 34 35 34 36 31 29 28 28 28 32 34 32 31 30 35 38 41 43 43 45 49 53
11 11 11 10 10 10 10 9 9 9 9 9 8 7 7 7 6 6 10 12 19 21 30 33 32 31 28 28 25 25 28 25 31 34 33 29 29 30 32 37 38 37 38 43 48
10 10 10 10 10 10 10 9 9 9 9 9 8 7 8 8 5 7 10 10 17 20 28 30 31 30 28 26 23 28 27 24 32 36 35 30 28 27 29 30 33 34 39 41 44
9 9 9 9 9 9 9 9 8 8 8 9 8 7 8 8 6 7 9 10 16 19 28 29 30 30 27 23 22 25 28 25 32 40 39 37 33 28 26 26 31 35 37 40 43
10 9 8 8 9 9 9 9 8 8 8 8 8 7 8 8 5 6 8 11 13 19 25 27 29 28 28 21 21 27 29 30 35 42 41 39 38 33 26 25 28 33 34 35 37
13 10 9 8 8 9 9 8 8 8 8 8 8 7 8 8 6 8 10 9 12 18 24 25 28 27 26 20 22 30 33 33 39 43 44 42 42 40 29 27 25 30 32 32 32
16 16 12 10 8 7 8 8 8 8 8 7 7 7 7 8 6 8 11 9 8 15 23 22 24 23 25 22 25 29 32 33 38 39 43 42 43 46 39 32 26 25 29 30 28
17 15 15 14 11 9 7 7 8 8 8 8 7 8 8 8 6 8 13 11 8 14 21 24 23 22 25 23 27 27 27 31 37 38 41 41 42 48 46 42 34 26 24 27 29
18 18 16 14 15 12 9 7 6 8 10 10 9 9 7 9 8 11 13 11 7 12 19 22 24 23 23 23 23 25 27 30 34 37 39 43 42 46 47 47 40 34 25 23 26
18 18 17 16 14 14 13 8 8 9 10 10 11 8 8 10 9 12 13 13 7 10 16 19 21 20 22 24 24 24 23 26 31 37 39 40 41 43 45 47 46 41 32 22 22
18 17 17 16 16 14 14 13 10 9 8 8 8 9 8 10 10 11 12 12 7 6 11 16 18 22 26 25 25 26 26 26 30 34 36 38 38 37 42 42 47 42 37 27 23
17 17 17 16 16 16 14 16 14 12 11 7 8 7 7 8 10 11 12 10 7 6 8 12 16 21 25 26 24 24 25 28 29 28 33 35 32 33 34 39 43 48 40 35 32
18 17 17 17 16 16 17 15 15 14 15 10 8 8 8 7 9 11 13 10 7 6 7 11 15 21 23 25 22 24 25 27 28 27 25 28 22 29 32 37 38 43 43 38 36
19 18 17 17 17 16 17 16 15 18 16 11 10 9 9 8 7 10 12 12 7 7 7 7 13 19 22 23 22 22 25 27 29 29 30 31 25 25 32 36 34 35 39 39 38
19 18 18 17 17 17 18 17 17 21 21 12 11 11 11 10 10 11 13 13 9 7 7 7 9 16 21 24 25 25 26 27 29 29 26 27 24 23 29 27 28 30 31 34 37
20 19 18 18 17 17 18 18 19 22 17 13 12 12 12 11 11 12 13 14 11 9 8 8 8 11 17 22 25 25 26 29 29 28 26 27 29 21 22 24 24 25 27 28 32
20 20 19 18 18 17 19 19 21 18 17 16 13 13 13 12 10 12 13 16 14 8 8 8 8 9 11 15 20 23 25 28 32 28 26 28 25 18 20 21 22 24 25 27 28
20 19 19 19 19 19 21 21 17 18 17 17 16 15 12 13 12 12 13 12 14 10 6 8 8 8 10 12 17 22 23 24 26 28 26 20 19 18 19 20 21 21 23 25 25
17 18 19 22 24 24 20 19 19 17 18 18 18 16 14 13 15 13 14 13 13 13 9 8 8 7 8 10 12 17 20 21 25 26 26 20 21 18 18 18 19 21 22 23 24
18 16 20 24 26 27 22 19 20 19 19 20 18 18 17 15 14 15 13 11 13 12 13 10 9 11 9 9 9 12 15 19 21 24 25 22 17 17 17 17 17 19 22 24 24
20 18 22 27 31 30 27 25 20 19 20 20 20 18 18 16 14 14 15 15 12 13 15 14 13 12 11 9 10 9 10 16 19 27 25 22 17 16 15 16 18 19 24 25 26
26 21 18 25 30 30 33 31 25 22 20 21 20 19 19 18 18 14 14 14 17 15 16 17 18 17 13 13 12 12 12 13 18 23 25 23 18 15 14 16 17 20 23 24 27
32 25 25 30 35 37 41 35 32 27 23 23 22 21 19 19 19 17 15 16 18 20 18 19 20 19 14 13 12 13 13 13 14 17 18 18 16 15 15 14 15 19 21 23 25
41 37 39 39 47 44 46 44 41 36 32 29 25 24 22 20 20 19 17 17 18 19 20 17 19 19 16 16 16 14 12 12 13 12 15 14 15 12 15 15 16 19 20 22 24
51 47 46 40 37 44 49 51 51 47 42 35 36 36 30 26 22 21 19 18 20 22 21 21 19 19 16 14 16 16 14 14 13 13 13 12 14 13 14 16 18 17 20 21 21
58 59 57 49 44 40 40 58 57 57 50 47 47 41 39 37 34 29 26 21 20 25 25 22 23 24 21 18 18 20 14 13 12 13 13 14 13 12 15 16 19 18 20 19 21

GFSSW_prec_cthk_162.txt.gz
RH
12 11 11 11 11 10 10 10 10 10 9 9 8 8 7 8 11 16 23 23 23 28 32 38 42 40 35 31 30 31 32 34 34 32 28 29 34 35 37 41 42 49 51 55 61
11 11 10 10 10 10 10 10 9 9 9 9 9 8 7 7 8 11 15 20 20 23 31 36 38 34 32 28 28 28 29 26 32 31 28 25 32 32 36 40 43 46 49 53 56
10 10 10 10 10 10 9 9 9 9 9 9 9 8 7 7 7 7 9 13 21 21 29 34 36 34 27 25 26 27 25 25 28 32 25 24 27 31 35 38 39 42 43 48 52
9 9 9 9 9 9 9 9 9 8 8 8 9 8 7 7 8 5 6 10 17 19 26 33 34 30 25 25 23 24 23 25 30 33 27 25 24 27 33 34 37 40 40 46 50
10 8 8 9 9 8 8 8 8 8 8 8 8 8 7 9 7 6 8 8 12 21 24 31 32 29 24 24 23 24 24 27 34 34 32 28 27 23 29 32 34 35 40 43 46
13 11 10 8 8 8 8 8 8 8 8 8 8 8 7 8 7 6 7 8 11 19 23 29 31 29 24 24 23 27 27 29 36 37 37 34 30 27 24 30 35 32 35 39 44
14 13 12 11 9 7 8 8 8 8 8 7 7 8 8 8 7 5 9 9 13 17 21 28 30 29 24 22 25 30 32 34 39 40 39 38 37 32 26 27 34 35 33 34 37
18 16 13 12 11 10 8 7 7 8 7 8 7 7 8 7 8 6 10 10 10 14 19 23 28 30 26 22 25 30 32 36 38 39 40 46 42 38 29 31 28 32 34 31 31
18 18 16 15 12 12 10 8 6 7 7 8 8 9 8 7 8 7 10 11 9 11 16 22 25 27 25 22 25 28 30 35 33 35 39 40 45 43 39 32 30 27 30 32 32
19 18 17 16 15 13 12 11 7 6 8 9 9 10 8 10 10 8 11 12 9 9 13 19 23 26 23 21 25 26 32 29 33 33 38 39 41 44 43 40 32 30 25 29 30
18 18 17 16 16 15 14 13 13 12 11 10 12 9 9 10 10 9 11 12 9 8 11 17 20 19 19 20 27 27 27 27 32 32 35 39 41 41 44 42 41 32 27 24 26
18 17 17 16 15 16 16 15 15 13 9 7 8 10 10 10 11 12 12 12 10 8 8 13 16 20 22 23 23 25 29 28 33 32 33 37 38 37 40 39 40 37 31 21 22
19 18 17 16 16 16 17 16 15 15 14 9 7 7 8 9 10 11 13 12 11 7 7 10 16 21 21 20 24 25 28 28 30 30 32 31 31 32 34 37 37 37 37 32 31
20 19 18 16 17 17 20 16 15 15 15 14 9 7 8 8 8 10 11 12 12 8 7 8 15 20 22 21 23 28 24 28 33 28 26 28 26 26 26 31 34 32 35 36 37
21 20 19 18 16 18 19 17 16 19 17 13 12 11 9 8 7 8 12 12 10 7 6 6 10 17 23 21 22 28 27 27 29 28 27 25 26 24 26 29 31 32 30 35 35
21 21 20 20 17 17 18 18 19 21 18 13 12 12 10 9 10 11 11 14 12 8 7 7 7 11 18 22 22 28 23 27 26 28 28 26 27 22 26 26 29 29 31 35 36
17 19 20 20 21 18 19 20 20 20 16 13 13 13 11 10 11 11 11 14 14 11 8 7 8 8 14 20 24 23 25 28 29 28 27 26 29 26 24 24 25 28 28 31 35
15 16 17 19 20 19 21 22 22 18 17 16 13 13 14 13 11 12 13 14 14 9 8 7 8 7 9 17 20 21 23 25 31 28 25 28 26 21 24 23 23 24 26 28 30
15 17 18 19 20 21 23 22 20 20 18 17 16 15 15 15 12 12 12 12 13 11 8 8 7 7 7 10 17 20 23 24 26 26 28 24 22 20 21 19 20 21 23 25 27
15 17 18 18 20 24 23 21 20 19 19 20 19 17 16 14 15 12 13 12 14 13 9 9 9 8 8 8 12 19 22 24 24 30 30 25 24 22 22 20 20 21 22 22 23
20 19 19 18 22 27 22 20 20 21 20 21 20 19 18 17 16 16 14 14 12 16 13 10 8 10 8 9 9 13 18 20 23 24 25 28 22 21 21 22 22 22 21 22 21
23 22 22 21 26 23 24 26 24 22 21 20 20 21 21 20 17 17 18 15 14 15 14 12 11 11 10 8 8 11 13 15 17 22 21 22 20 22 20 20 20 17 20 20 21
30 23 18 18 21 25 28 32 31 26 22 20 21 21 21 21 21 18 17 17 16 16 16 14 13 14 12 13 11 9 10 12 14 17 21 21 18 22 20 18 16 15 18 19 23
35 27 26 29 31 33 40 34 32 32 27 25 22 22 22 22 21 22 18 15 13 15 17 16 14 15 13 11 12 10 10 10 12 14 15 18 19 21 19 17 16 14 16 18 23
45 39 38 35 47 36 37 32 33 38 34 37 29 25 24 24 23 23 21 18 15 16 17 18 19 20 17 18 15 13 12 12 12 11 13 13 15 16 18 17 15 14 15 18 22
54 48 48 41 40 33 37 34 43 46 43 34 40 38 33 28 26 25 23 22 20 18 19 21 22 20 23 18 20 18 16 15 12 11 12 13 15 19 15 15 16 12 15 17 18
68 59 58 51 43 38 34 38 50 46 39 47 52 44 39 38 38 33 31 28 27 24 22 23 21 24 23 21 21 21 15 13 12 14 12 13 14 14 15 13 12 10 14 18 18

GFSSW_prec_cthk_165.txt.gz
RH
11 11 11 10 10 10 10 10 9 9 9 9 8 8 8 8 12 14 23 22 25 28 34 40 43 41 35 35 32 36 38 34 35 37 28 31 31 37 39 41 47 51 51 59 65
10 10 10 10 9 9 9 9 9 9 8 8 8 8 8 7 7 11 15 22 20 25 31 40 40 33 31 26 26 29 29 32 40 33 25 30 31 33 38 42 45 48 50 56 62
9 9 9 9 9 9 9 9 8 8 8 8 8 8 8 7 6 8 12 14 22 21 30 37 36 32 27 22 28 32 28 31 38 27 24 29 31 36 39 43 41 43 44 51 59
9 8 9 9 9 8 8 8 8 8 8 8 8 8 8 7 10 9 6 9 16 19 26 35 36 29 24 26 26 29 26 31 34 28 26 29 30 39 39 39 35 39 43 47 54
11 11 9 8 8 8 8 8 8 8 8 8 8 8 8 10 7 8 7 6 10 22 24 33 34 28 23 25 25 24 30 33 35 33 25 26 27 26 30 31 34 38 39 47 50
14 12 11 10 9 8 8 8 8 8 8 8 7 7 8 8 10 8 6 7 9 18 22 32 31 27 22 23 25 30 30 37 37 32 32 29 24 27 25 30 32 35 41 43 48
19 17 14 11 10 10 8 7 7 8 8 8 7 7 9 8 8 8 8 8 9 16 22 29 31 26 24 23 23 34 34 39 41 36 35 36 33 29 21 30 33 34 38 41 42
19 18 17 16 13 10 10 9 7 7 7 7 8 7 9 9 8 7 10 11 11 16 21 24 28 27 22 25 24 35 34 37 39 35 39 48 40 30 28 27 32 34 35 37 39
18 18 17 16 16 14 11 10 9 7 7 7 8 10 9 8 7 7 8 10 9 13 19 23 26 28 24 22 28 32 32 37 43 38 34 46 51 32 32 32 30 31 33 33 35
18 17 17 16 16 15 15 13 10 10 7 7 11 14 8 8 8 8 8 11 9 9 14 20 26 27 24 23 24 27 30 37 39 33 36 36 50 33 32 35 35 28 28 31 32
19 18 16 16 16 16 15 17 17 18 13 9 15 9 11 11 11 9 9 11 9 7 10 16 21 22 23 21 22 23 29 33 29 36 36 40 40 48 34 34 33 32 24 26 29
20 18 17 16 15 16 18 19 17 16 13 9 8 12 11 11 10 9 11 10 9 8 8 12 14 19 23 25 23 25 25 24 26 38 31 39 36 38 44 31 32 33 27 21 24
21 20 18 17 16 19 19 18 17 16 15 12 8 6 10 10 10 12 11 10 10 9 7 8 11 19 22 24 24 25 26 26 28 35 32 32 30 34 39 38 33 32 32 26 24
21 21 20 18 21 18 22 20 18 17 16 13 12 9 6 9 10 11 11 10 13 10 9 8 10 16 19 22 22 24 24 24 25 34 32 30 26 32 33 41 35 31 30 31 30
16 20 21 20 18 20 22 19 18 20 20 15 13 12 8 6 7 8 13 13 13 12 10 7 8 12 20 18 21 22 24 23 25 30 27 31 25 22 29 28 32 32 32 31 30
14 15 18 23 23 22 21 21 21 23 20 14 13 12 12 8 8 9 11 12 13 14 11 7 7 10 13 16 21 22 25 27 24 27 27 24 23 21 24 29 31 33 32 34 36
13 13 15 16 22 25 22 23 23 22 18 16 14 12 13 10 9 10 10 12 14 14 10 7 7 7 10 15 20 23 25 29 27 25 25 23 23 21 22 27 31 37 30 31 35
14 13 13 19 19 21 24 25 25 19 18 17 15 14 14 13 10 12 13 15 14 13 11 9 8 8 7 12 21 23 23 25 30 27 23 23 23 25 24 24 24 28 40 32 30
12 15 16 19 22 20 25 25 21 22 20 20 17 16 15 14 13 14 15 12 14 13 12 11 9 7 7 8 17 22 23 23 24 23 22 20 23 26 24 24 25 23 29 36 31
13 16 16 19 21 23 24 22 22 22 21 20 20 18 18 17 16 14 15 13 12 14 11 11 11 8 8 7 11 18 22 24 24 26 25 21 24 25 24 24 23 21 23 29 33
19 20 28 20 20 25 23 21 22 23 22 21 22 22 20 19 17 18 16 16 14 15 14 13 12 13 10 9 8 13 20 22 22 23 23 25 23 22 23 23 23 21 22 24 28
25 24 35 19 23 23 24 23 22 22 22 21 21 22 23 23 22 18 17 16 16 15 16 16 13 12 12 10 8 9 13 19 24 26 23 22 20 21 21 23 25 24 23 24 27
33 28 25 19 17 16 23 24 26 28 25 23 22 21 23 23 24 21 19 22 18 16 15 20 15 16 13 13 11 9 11 13 18 22 23 24 22 20 22 23 23 24 23 22 23
41 35 35 28 23 24 29 40 37 37 34 30 25 23 23 23 24 27 23 24 20 18 19 21 19 15 14 13 13 11 9 11 14 17 18 19 21 21 21 25 25 21 20 19 21
55 54 49 46 49 48 39 44 43 38 35 34 33 27 25 25 24 25 26 22 19 20 18 21 21 16 13 16 14 16 13 10 10 12 16 16 17 18 22 22 25 22 21 20 20
65 63 60 50 45 44 37 30 32 33 36 47 43 40 30 28 28 29 28 26 23 18 17 19 22 21 19 15 19 17 15 14 10 10 12 14 15 15 17 21 24 26 21 20 18
84 77 65 52 49 44 40 41 33 54 53 48 56 56 46 41 38 35 34 32 30 26 20 20 23 26 24 21 23 21 15 14 12 11 12 13 13 15 15 19 22 21 20 19 17

GFSSW_prec_cthk_168.txt.gz
RH
10 10 10 10 10 10 9 9 9 9 8 8 8 8 7 9 11 13 20 19 24 33 33 38 38 30 38 40 42 40 40 52 38 33 30 34 39 42 41 38 56 56 49 59 61
10 10 10 9 9 9 9 8 8 8 8 8 8 7 7 7 8 10 12 21 19 25 31 39 40 31 29 31 31 34 32 35 39 29 32 32 34 35 42 44 49 50 51 57 58
9 9 9 9 9 8 8 8 8 8 8 8 8 7 7 7 6 8 10 14 21 21 29 37 34 30 24 24 27 30 29 39 33 28 28 30 32 38 39 43 46 41 47 53 58
10 9 9 8 8 8 8 8 8 8 8 8 8 7 7 7 11 11 9 11 17 18 27 36 32 29 25 28 26 28 26 41 31 26 27 29 36 40 51 40 38 41 45 52 56
14 12 11 10 9 8 8 8 8 8 8 7 7 7 7 9 7 8 8 9 11 19 22 34 33 28 25 26 24 26 30 41 34 29 22 27 30 34 28 35 37 38 47 50 52
19 18 16 12 11 10 9 7 7 7 8 7 7 7 7 7 7 10 8 7 7 14 21 32 35 27 24 24 27 27 29 42 37 25 27 22 21 27 31 32 34 37 40 47 53
19 18 17 17 15 11 10 9 8 7 7 7 7 7 8 6 9 10 9 9 7 13 21 30 34 26 22 22 26 32 31 38 41 30 32 36 32 30 23 29 30 35 39 42 47
19 18 17 17 16 16 13 10 9 8 7 7 7 7 7 6 7 8 8 11 9 13 19 28 32 26 20 23 26 33 32 36 40 35 43 43 46 27 27 26 31 31 35 40 43
19 18 17 16 16 16 15 14 11 9 8 6 7 9 8 8 7 7 7 12 10 13 19 24 26 26 21 21 24 30 33 36 46 41 45 38 46 31 28 29 27 31 32 32 36
20 19 17 17 16 15 16 15 15 11 10 8 7 14 9 9 8 6 8 10 11 13 18 20 23 25 23 23 23 26 34 42 42 41 41 40 38 35 29 28 29 27 29 31 32
22 20 19 17 16 15 16 17 20 23 17 13 11 8 8 10 9 8 8 9 13 11 13 19 22 23 22 18 22 25 33 37 42 42 41 44 54 50 39 30 30 29 26 26 30
20 21 20 18 17 17 19 21 19 18 15 15 12 11 12 11 12 10 9 10 11 8 10 14 15 20 24 20 23 23 27 33 37 37 38 32 43 51 44 36 28 28 28 21 24
15 17 20 20 19 21 20 21 18 17 16 13 11 9 9 11 12 11 9 11 11 9 7 9 12 21 23 23 24 23 23 28 32 38 37 29 30 40 45 44 37 31 28 25 22
13 14 15 19 23 21 24 23 19 18 17 12 11 10 8 10 11 11 10 11 12 10 9 8 10 17 20 21 25 24 22 25 30 33 36 32 27 32 33 45 42 35 29 26 25
13 12 13 16 20 22 25 23 20 20 22 15 12 11 10 8 9 8 11 12 11 12 10 9 8 11 16 19 23 23 22 22 23 29 31 32 30 30 29 37 43 42 32 28 24
13 13 12 12 18 21 24 23 22 24 22 16 12 12 11 10 9 11 12 13 12 13 13 10 10 9 12 17 21 22 21 22 21 22 28 28 28 24 24 27 34 42 34 28 26
10 10 12 12 14 21 24 25 25 24 16 17 15 14 11 10 9 10 11 15 13 15 16 15 12 9 9 15 19 21 21 23 29 27 23 27 25 25 24 24 28 32 37 37 31
9 9 9 12 14 17 22 26 29 19 18 20 18 16 13 12 10 9 12 13 14 14 15 16 13 9 8 11 16 20 20 23 30 29 22 22 26 24 21 25 28 35 36 38 34
9 9 10 12 17 19 23 24 21 23 23 21 22 20 15 15 12 11 10 12 13 12 14 14 12 8 8 7 12 19 20 21 22 24 24 22 21 21 23 23 24 25 32 37 37
12 13 10 10 20 21 24 22 20 23 25 25 23 23 20 18 15 14 13 13 13 13 13 13 14 10 7 9 9 14 20 22 21 27 28 23 23 26 26 27 24 24 21 31 35
18 22 19 24 20 23 23 20 20 25 25 24 22 23 23 21 20 18 14 16 16 15 16 15 15 15 12 9 8 8 17 21 21 22 25 26 23 26 30 26 24 24 21 22 28
26 24 34 38 25 20 23 22 23 23 26 24 23 23 24 23 25 21 20 16 18 16 15 16 17 17 14 11 8 8 9 19 23 25 23 24 22 20 26 28 24 23 20 22 25
37 28 33 42 30 20 17 22 22 22 26 25 23 23 24 24 25 24 23 21 20 20 16 17 18 21 18 14 11 10 9 14 19 22 24 24 23 20 22 21 23 25 23 24 25
50 43 48 37 26 21 22 26 23 23 24 28 28 25 25 24 24 24 26 23 21 20 21 19 21 19 20 14 13 12 10 11 14 20 22 23 25 22 21 22 24 25 25 24 22
61 62 83 79 73 56 44 30 42 44 36 34 35 30 29 28 26 25 26 26 25 23 23 21 20 22 18 18 14 13 13 10 11 12 15 16 22 22 23 23 24 24 24 23 24
67 75 85 76 74 72 57 52 53 52 49 45 40 39 36 30 29 31 35 31 32 27 23 22 20 22 27 20 18 16 14 14 12 10 10 14 16 16 17 20 21 23 29 28 27
66 88 85 62 61 58 58 58 38 41 43 51 55 56 49 52 40 37 35 33 31 30 25 21 21 25 24 25 21 19 15 14 14 13 11 12 11 14 17 17 18 21 25 27 27